timestamp,wind_dir_avg,wind_spd_max_dir,wind_spd_avg,wind_spd_gust,battery_voltage,lat,long
2017-10-02 00:00:00+00:00,253.0,256.0,11.85,15.32,12.7,47.59359,-54.27349
2017-10-02 00:10:00+00:00,251.0,257.0,12.33,15.05,12.6,47.59359,-54.27349
2017-10-02 00:20:00+00:00,257.0,254.0,11.25,13.12,12.7,47.59359,-54.27349
2017-10-02 00:30:00+00:00,251.0,248.0,10.94,12.18,12.7,47.59359,-54.27349
2017-10-02 00:40:00+00:00,256.0,252.0,10.32,11.29,12.7,47.59359,-54.27349
2017-10-02 00:50:00+00:00,251.0,244.0,9.62,11.25,12.7,47.59359,-54.27349
2017-10-02 01:00:00+00:00,246.0,251.0,11.07,12.86,12.6,47.59359,-54.27349
2017-10-02 01:10:00+00:00,251.0,252.0,11.03,12.43,12.6,47.59359,-54.27349
2017-10-02 01:20:00+00:00,259.0,262.0,11.1,12.78,12.7,47.59359,-54.27349
2017-10-02 01:30:00+00:00,254.0,251.0,11.26,13.34,12.7,47.59359,-54.27349
2017-10-02 01:40:00+00:00,244.0,249.0,10.72,11.73,12.7,47.59359,-54.27349
2017-10-02 01:50:00+00:00,241.0,249.0,9.32,11.58,12.7,47.59359,-54.27349
2017-10-02 02:00:00+00:00,243.0,247.0,9.03,10.08,12.6,47.59359,-54.27349
2017-10-02 02:10:00+00:00,243.0,241.0,10.04,11.38,12.6,47.59359,-54.27349
2017-10-02 02:20:00+00:00,240.0,239.0,8.61,9.74,12.7,47.59359,-54.27349
2017-10-02 02:30:00+00:00,245.0,243.0,8.06,9.89,12.7,47.59359,-54.27349
2017-10-02 02:40:00+00:00,255.0,254.0,9.33,10.88,12.7,47.59359,-54.27349
2017-10-02 02:50:00+00:00,248.0,249.0,8.42,11.22,12.7,47.59359,-54.27349
2017-10-02 03:00:00+00:00,249.0,252.0,8.16,9.86,12.6,47.59359,-54.27349
2017-10-02 03:10:00+00:00,244.0,233.0,7.37,8.77,12.6,47.59359,-54.27349
2017-10-02 03:20:00+00:00,249.0,256.0,8.71,12.29,12.6,47.59359,-54.27349
2017-10-02 03:30:00+00:00,241.0,237.0,8.08,10.19,12.6,47.59359,-54.27349
2017-10-02 03:40:00+00:00,232.0,232.0,8.03,8.9,12.7,47.59359,-54.27349
2017-10-02 03:50:00+00:00,242.0,239.0,7.96,9.08,12.7,47.59359,-54.27349
2017-10-02 04:00:00+00:00,239.0,236.0,7.43,8.41,12.6,47.59359,-54.27349
2017-10-02 04:10:00+00:00,247.0,243.0,7.17,8.44,12.6,47.59359,-54.27349
2017-10-02 04:20:00+00:00,243.0,240.0,7.49,9.29,12.6,47.59359,-54.27349
2017-10-02 04:30:00+00:00,248.0,256.0,7.56,8.73,12.6,47.59359,-54.27349
2017-10-02 04:40:00+00:00,245.0,253.0,7.31,8.59,12.6,47.59359,-54.27349
2017-10-02 04:50:00+00:00,242.0,234.0,7.76,8.68,12.6,47.59359,-54.27349
2017-10-02 05:00:00+00:00,242.0,243.0,9.01,10.68,12.6,47.59359,-54.27349
2017-10-02 05:10:00+00:00,239.0,243.0,8.15,9.38,12.6,47.59359,-54.27349
2017-10-02 05:20:00+00:00,243.0,253.0,7.47,8.48,12.6,47.59359,-54.27349
2017-10-02 05:30:00+00:00,246.0,252.0,7.12,8.76,12.6,47.59359,-54.27349
2017-10-02 05:40:00+00:00,241.0,243.0,8.39,10.04,12.6,47.59359,-54.27349
2017-10-02 05:50:00+00:00,244.0,251.0,7.75,10.71,12.6,47.59359,-54.27349
2017-10-02 06:00:00+00:00,243.0,242.0,7.8,9.61,12.6,47.59359,-54.27349
2017-10-02 06:10:00+00:00,251.0,250.0,8.8,9.98,12.6,47.59359,-54.27349
2017-10-02 06:20:00+00:00,245.0,247.0,7.34,8.6,12.6,47.59359,-54.27349
2017-10-02 06:30:00+00:00,248.0,253.0,7.22,8.6,12.6,47.59359,-54.27349
2017-10-02 06:40:00+00:00,252.0,258.0,7.55,8.66,12.6,47.59359,-54.27349
2017-10-02 06:50:00+00:00,253.0,249.0,7.76,8.79,12.6,47.59359,-54.27349
2017-10-02 07:00:00+00:00,257.0,263.0,7.51,8.21,12.6,47.59359,-54.27349
2017-10-02 07:10:00+00:00,256.0,254.0,7.06,7.87,12.6,47.59359,-54.27349
2017-10-02 07:20:00+00:00,257.0,256.0,7.3,8.21,12.6,47.59359,-54.27349
2017-10-02 07:30:00+00:00,260.0,261.0,7.56,8.31,12.6,47.59359,-54.27349
2017-10-02 07:40:00+00:00,261.0,263.0,7.66,8.41,12.6,47.59359,-54.27349
2017-10-02 07:50:00+00:00,264.0,263.0,7.1,7.76,12.6,47.59359,-54.27349
2017-10-02 08:00:00+00:00,266.0,262.0,7.4,8.39,12.6,47.59359,-54.27349
2017-10-02 08:10:00+00:00,267.0,270.0,7.61,8.24,12.6,47.59359,-54.27349
2017-10-02 08:20:00+00:00,257.0,262.0,6.68,7.64,12.6,47.59359,-54.27349
2017-10-02 08:30:00+00:00,257.0,253.0,7.17,8.5,12.6,47.59359,-54.27349
2017-10-02 08:40:00+00:00,263.0,265.0,7.06,8.07,12.6,47.59359,-54.27349
2017-10-02 08:50:00+00:00,257.0,257.0,5.97,6.82,12.6,47.59359,-54.27349
2017-10-02 09:00:00+00:00,237.0,237.0,6.11,7.23,12.6,47.59359,-54.27349
2017-10-02 09:10:00+00:00,241.0,244.0,5.48,6.13,12.5,47.59359,-54.27349
2017-10-02 09:20:00+00:00,256.0,258.0,6.22,8.16,12.6,47.59359,-54.27349
2017-10-02 09:30:00+00:00,263.0,266.0,6.52,7.25,12.6,47.59359,-54.27349
2017-10-02 09:40:00+00:00,277.0,278.0,4.89,5.35,12.6,47.59359,-54.27349
2017-10-02 09:50:00+00:00,273.0,279.0,5.11,6.52,12.6,47.59359,-54.27349
2017-10-02 10:00:00+00:00,282.0,278.0,5.29,6.0,12.6,47.59359,-54.27349
2017-10-02 10:10:00+00:00,288.0,288.0,4.57,5.03,12.6,47.59359,-54.27349
2017-10-02 10:20:00+00:00,265.0,262.0,4.39,4.85,12.6,47.59359,-54.27349
2017-10-02 10:30:00+00:00,282.0,278.0,3.41,4.01,12.6,47.59359,-54.27349
2017-10-02 10:40:00+00:00,277.0,284.0,3.6,4.45,12.7,47.59359,-54.27349
2017-10-02 10:50:00+00:00,299.0,303.0,2.22,2.81,12.9,47.59359,-54.27349
2017-10-02 11:00:00+00:00,294.0,282.0,1.85,2.24,12.8,47.59359,-54.27349
2017-10-02 11:10:00+00:00,211.0,214.0,1.49,1.89,12.7,47.59359,-54.27349
2017-10-02 11:20:00+00:00,277.0,255.0,0.45,0.75,12.8,47.59359,-54.27349
2017-10-02 11:30:00+00:00,228.0,229.0,0.76,0.93,12.9,47.59359,-54.27349
2017-10-02 11:40:00+00:00,338.0,326.0,0.75,1.02,13.0,47.59359,-54.27349
2017-10-02 11:50:00+00:00,342.0,345.0,1.55,2.08,13.0,47.59359,-54.27349
2017-10-02 12:00:00+00:00,15.0,16.0,3.01,3.58,13.0,47.59359,-54.27349
2017-10-02 12:10:00+00:00,323.0,333.0,0.84,2.37,13.0,47.59359,-54.27349
2017-10-02 12:20:00+00:00,44.0,38.0,1.9,2.77,13.4,47.59359,-54.27349
2017-10-02 12:30:00+00:00,76.0,77.0,0.42,0.68,13.7,47.59359,-54.27349
2017-10-02 12:40:00+00:00,35.0,46.0,1.92,2.3,13.8,47.59359,-54.27349
2017-10-02 12:50:00+00:00,356.0,358.0,1.11,1.29,13.7,47.59359,-54.27349
2017-10-02 13:00:00+00:00,359.0,4.0,1.68,1.87,14.0,47.59359,-54.27349
2017-10-02 13:10:00+00:00,40.0,37.0,2.6,3.48,13.5,47.59359,-54.27349
2017-10-02 13:20:00+00:00,86.0,81.0,1.17,1.91,14.0,47.59359,-54.27349
2017-10-02 13:30:00+00:00,356.0,35.0,0.98,1.9,13.8,47.59359,-54.27349
2017-10-02 13:40:00+00:00,30.0,37.0,3.05,3.69,13.7,47.59359,-54.27349
2017-10-02 13:50:00+00:00,34.0,37.0,7.13,7.76,13.7,47.59359,-54.27349
2017-10-02 14:00:00+00:00,48.0,49.0,6.78,7.41,13.9,47.59359,-54.27349
2017-10-02 14:10:00+00:00,49.0,47.0,6.29,7.03,14.0,47.59359,-54.27349
2017-10-02 14:20:00+00:00,40.0,40.0,5.29,5.87,13.9,47.59359,-54.27349
2017-10-02 14:30:00+00:00,48.0,41.0,5.39,6.02,13.7,47.59359,-54.27349
2017-10-02 14:40:00+00:00,56.0,63.0,5.64,7.01,14.0,47.59359,-54.27349
2017-10-02 14:50:00+00:00,52.0,53.0,5.38,5.98,13.8,47.59359,-54.27349
2017-10-02 15:00:00+00:00,58.0,58.0,7.19,7.88,14.2,47.59359,-54.27349
2017-10-02 15:10:00+00:00,56.0,45.0,6.15,7.15,13.9,47.59359,-54.27349
2017-10-02 15:20:00+00:00,54.0,57.0,6.09,6.87,13.8,47.59359,-54.27349
2017-10-02 15:30:00+00:00,55.0,61.0,7.18,8.38,13.7,47.59359,-54.27349
2017-10-02 15:40:00+00:00,47.0,44.0,7.9,8.52,13.7,47.59359,-54.27349
2017-10-02 15:50:00+00:00,54.0,49.0,6.55,7.33,13.7,47.59359,-54.27349
2017-10-02 16:00:00+00:00,69.0,72.0,7.11,8.2,13.7,47.59359,-54.27349
2017-10-02 16:10:00+00:00,63.0,66.0,7.35,8.07,13.8,47.59359,-54.27349
2017-10-02 16:20:00+00:00,57.0,57.0,7.2,8.13,14.0,47.59359,-54.27349
2017-10-02 16:30:00+00:00,73.0,75.0,9.2,9.7,13.9,47.59359,-54.27349
2017-10-02 16:40:00+00:00,89.0,83.0,6.19,9.26,13.8,47.59359,-54.27349
2017-10-02 16:50:00+00:00,88.0,79.0,6.24,7.9,13.8,47.59359,-54.27349
2017-10-02 17:00:00+00:00,90.0,89.0,6.13,7.95,13.7,47.59359,-54.27349
2017-10-02 17:10:00+00:00,83.0,86.0,9.32,10.17,13.7,47.59359,-54.27349
2017-10-02 17:20:00+00:00,84.0,82.0,9.06,11.09,14.3,47.59359,-54.27349
2017-10-02 17:30:00+00:00,80.0,78.0,9.37,12.6,13.9,47.59359,-54.27349
2017-10-02 17:40:00+00:00,81.0,83.0,9.41,10.95,13.7,47.59359,-54.27349
2017-10-02 17:50:00+00:00,88.0,85.0,8.92,10.44,13.8,47.59359,-54.27349
2017-10-02 18:00:00+00:00,90.0,86.0,8.17,9.75,13.8,47.59359,-54.27349
2017-10-02 18:10:00+00:00,85.0,80.0,9.56,11.81,13.8,47.59359,-54.27349
2017-10-02 18:20:00+00:00,88.0,108.0,8.19,10.74,13.7,47.59359,-54.27349
2017-10-02 18:30:00+00:00,86.0,82.0,9.22,11.24,13.7,47.59359,-54.27349
2017-10-02 18:40:00+00:00,85.0,89.0,10.45,12.67,14.3,47.59359,-54.27349
2017-10-02 18:50:00+00:00,89.0,85.0,7.47,9.69,13.8,47.59359,-54.27349
2017-10-02 19:00:00+00:00,96.0,81.0,7.84,10.74,13.8,47.59359,-54.27349
2017-10-02 19:10:00+00:00,91.0,89.0,8.89,11.94,13.8,47.59359,-54.27349
2017-10-02 19:20:00+00:00,85.0,84.0,11.15,13.11,14.1,47.59359,-54.27349
2017-10-02 19:30:00+00:00,90.0,80.0,8.39,12.17,14.0,47.59359,-54.27349
2017-10-02 19:40:00+00:00,85.0,80.0,8.97,12.1,14.0,47.59359,-54.27349
2017-10-02 19:50:00+00:00,87.0,85.0,10.83,13.75,13.9,47.59359,-54.27349
2017-10-02 20:00:00+00:00,83.0,80.0,10.67,12.23,13.8,47.59359,-54.27349
2017-10-02 20:10:00+00:00,89.0,81.0,9.8,12.19,13.7,47.59359,-54.27349
2017-10-02 20:20:00+00:00,82.0,86.0,9.33,10.26,13.8,47.59359,-54.27349
2017-10-02 20:30:00+00:00,78.0,76.0,10.51,12.65,13.7,47.59359,-54.27349
2017-10-02 20:40:00+00:00,73.0,77.0,10.85,13.18,13.7,47.59359,-54.27349
2017-10-02 20:50:00+00:00,59.0,65.0,13.78,15.84,13.6,47.59359,-54.27349
2017-10-02 21:00:00+00:00,57.0,65.0,12.61,14.73,13.4,47.59359,-54.27349
2017-10-02 21:10:00+00:00,55.0,62.0,12.61,15.06,13.2,47.59359,-54.27349
2017-10-02 21:20:00+00:00,51.0,51.0,15.71,17.99,13.2,47.59359,-54.27349
2017-10-02 21:30:00+00:00,49.0,53.0,13.78,15.66,13.1,47.59359,-54.27349
2017-10-02 21:40:00+00:00,48.0,48.0,13.08,16.93,13.0,47.59359,-54.27349
2017-10-02 21:50:00+00:00,44.0,50.0,14.58,17.7,13.0,47.59359,-54.27349
2017-10-02 22:00:00+00:00,52.0,52.0,14.78,17.19,13.0,47.59359,-54.27349
2017-10-02 22:10:00+00:00,52.0,52.0,16.68,19.54,12.8,47.59359,-54.27349
2017-10-02 22:20:00+00:00,53.0,54.0,15.9,17.94,12.8,47.59359,-54.27349
2017-10-02 22:30:00+00:00,51.0,52.0,15.72,18.91,12.8,47.59359,-54.27349
2017-10-02 22:40:00+00:00,45.0,39.0,14.46,20.32,12.8,47.59359,-54.27349
2017-10-02 22:50:00+00:00,54.0,56.0,14.45,17.42,12.8,47.59359,-54.27349
2017-10-02 23:00:00+00:00,45.0,42.0,14.15,16.2,12.7,47.59359,-54.27349
2017-10-02 23:10:00+00:00,40.0,41.0,16.07,18.15,12.6,47.59359,-54.27349
2017-10-02 23:20:00+00:00,55.0,61.0,14.72,16.7,12.7,47.59359,-54.27349
2017-10-02 23:30:00+00:00,49.0,58.0,13.46,16.0,12.7,47.59359,-54.27349
2017-10-02 23:40:00+00:00,37.0,42.0,14.46,16.73,12.7,47.59359,-54.27349
2017-10-02 23:50:00+00:00,49.0,46.0,13.52,16.39,12.7,47.59359,-54.27349
